Weather History for MKJP - June, 2011

Change the Weather History Date:

Thursday, June 9, 2011

  Actual Average Record
Temperature  
Mean Temperature 82 °F -  
Max Temperature 88 °F 87 °F 91 °F (1998)
Min Temperature 77 °F 78 °F 76 °F (2013)
Cooling Degree Days 18    
Growing Degree Days 32 (Base 50)    
Moisture  
Dew Point 71 °F    
Average Humidity 71    
Maximum Humidity 83    
Minimum Humidity 60    
Precipitation  
Precipitation 0.00 in - - ()
Sea Level Pressure  
Sea Level Pressure 29.87 in    
Wind  
Wind Speed 7 mph ()    
Max Wind Speed 13 mph    
Max Gust Speed -    
Visibility 5.7 miles    
Events Thunderstorm    
Averages and records for this station are not official NWS values.
T = Trace of Precipitation, MM = Missing Value Source: Averaged Metar Reports

Daily Weather History Graph

Daily Weather History Graph

Search for Another Location

Airport or City:

Trip Planner

Search our weather history database for the weather conditions in past years. The results will help you decide how hot, cold, wet, or windy it might be!

Date:

Astronomy

Jun. 09, 2011 Rise Set
Actual Time 5:31 AM EST 6:41 PM EST
Civil Twilight 5:06 AM EST 7:05 PM EST
Nautical Twilight 4:38 AM EST 7:34 PM EST
Astronomical Twilight 4:09 AM EST 8:03 PM EST
Moon 12:43 PM EST (6/9) 12:10 AM EST (6/9)
Length of Visible Light 13h 58m
Length of Day
13h 10m
First Quarter, 57% of the Moon is Illuminated
Jun 9
First Quarter
Jun 15
Full
Jun 23
Last Quarter
Jul 1
New
Jul 8
First Quarter

Hourly Weather History & Observations

Time (EST) Temp. Heat Index Dew Point Humidity Pressure Visibility Wind Dir Wind Speed Gust Speed Precip Events Conditions
12:00 AM 77.0 °F - 69.8 °F 78% 29.89 in 6.2 mi ESE 3.5 mph - N/A   Mostly Cloudy
1:00 AM 77 °F - 70 °F 73% 29.88 in 3 mi East 6.9 mph - -   Scattered Clouds
1:00 AM 77.0 °F - 69.8 °F 78% 29.86 in 6.2 mi East 6.9 mph - N/A   Mostly Cloudy
2:00 AM 78.8 °F - 69.8 °F 74% 29.86 in 6.2 mi East 10.4 mph - N/A   Mostly Cloudy
3:00 AM 77.0 °F - 69.8 °F 78% 29.83 in 6.2 mi ESE 9.2 mph - N/A   Mostly Cloudy
4:00 AM 78 °F - 68 °F 65% 29.87 in 3 mi East 4.6 mph - -   Scattered Clouds
4:00 AM 78.8 °F - 68.0 °F 69% 29.86 in 6.2 mi East 4.6 mph - N/A   Mostly Cloudy
5:00 AM 78.8 °F - 68.0 °F 69% 29.86 in 6.2 mi ESE 8.1 mph - N/A   Scattered Clouds
6:00 AM 78.8 °F - 69.8 °F 74% 29.89 in 6.2 mi SE 6.9 mph - N/A   Mostly Cloudy
8:00 AM 80.6 °F 83.9 °F 69.8 °F 70% 29.89 in 6.2 mi ESE 9.2 mph - N/A   Scattered Clouds
9:00 AM 80.6 °F 83.9 °F 69.8 °F 70% 29.92 in 6.2 mi ESE 9.2 mph - N/A   Scattered Clouds
10:00 AM 82 °F - 71 °F 60% 29.93 in - SE 9.2 mph - -   Haze
10:00 AM 82.4 °F 86.3 °F 69.8 °F 66% 29.92 in 6.2 mi SE 9.2 mph - N/A   Mostly Cloudy
11:00 AM 82.4 °F 86.3 °F 69.8 °F 66% 29.92 in 6.2 mi SSE 9.2 mph - N/A   Mostly Cloudy
12:00 PM 82.4 °F 87.2 °F 71.6 °F 70% 29.89 in 6.2 mi SE 11.5 mph - N/A   Mostly Cloudy
1:00 PM 84.2 °F 89.6 °F 71.6 °F 66% 29.86 in 6.2 mi SSE 10.4 mph - N/A   Scattered Clouds
2:00 PM 82.4 °F 87.2 °F 71.6 °F 70% 29.86 in 6.2 mi SSE 10.4 mph - N/A   Mostly Cloudy
3:00 PM 82.4 °F 87.2 °F 71.6 °F 70% 29.83 in 6.2 mi SE 8.1 mph - N/A   Mostly Cloudy
4:00 PM 82 °F - 72 °F 64% 29.84 in 4 mi SE 10.4 mph - -   Haze
4:00 PM 82.4 °F 87.2 °F 71.6 °F 70% 29.83 in 6.2 mi SE 10.4 mph - N/A   Mostly Cloudy
5:00 PM 82.4 °F 87.2 °F 71.6 °F 70% 29.83 in 6.2 mi SE 10.4 mph - N/A   Mostly Cloudy
6:00 PM 78.8 °F - 73.4 °F 83% 29.86 in 6.2 mi SSE 10.4 mph - N/A   Mostly Cloudy
7:00 PM 81 °F - 72 °F 66% 29.87 in 3 mi SE 11.5 mph - -   Haze
7:00 PM 78.8 °F - 71.6 °F 78% 29.86 in 6.2 mi ESE 6.9 mph - N/A   Mostly Cloudy
8:00 PM 78.8 °F - 71.6 °F 78% 29.89 in 6.2 mi ESE 4.6 mph - N/A Thunderstorm Mostly Cloudy
11:00 PM 80.6 °F 84.6 °F 71.6 °F 74% 29.89 in 6.2 mi ESE 12.7 mph - N/A   Scattered Clouds